Holdrege, NE

1:54 AM CDT on October 17, 2017 (GMT -0500)
Brewster

Weather History for KHDE - October, 2012

Change the Weather History Date:

Tuesday, October 16, 2012

  Actual Average Record
Temperature  
Mean Temperature 66 °F -  
Max Temperature 79 °F 66 °F 84 °F (1964)
Min Temperature 53 °F 38 °F 24 °F (1969)
Growing Degree Days 16 (Base 50)    
Moisture  
Dew Point 40 °F    
Average Humidity 42    
Maximum Humidity 74    
Minimum Humidity 22    
Precipitation  
Precipitation 0.00 in - - ()
Sea Level Pressure  
Sea Level Pressure 29.62 in    
Wind  
Wind Speed 9 mph (WSW)    
Max Wind Speed 16 mph    
Max Gust Speed 22 mph    
Visibility 10 miles    
Events      
Averages and records for this station are not official NWS values.
T = Trace of Precipitation, MM = Missing Value Source: NWS Daily Summary

Daily Weather History Graph

Daily Weather History Graph

Search for Another Location

Airport or City:

Trip Planner

Search our weather history database for the weather conditions in past years. The results will help you decide how hot, cold, wet, or windy it might be!

Date:

Astronomy

Oct. 16, 2012 Rise Set
Actual Time 7:49 AM CDT 6:55 PM CDT
Civil Twilight 7:22 AM CDT 7:22 PM CDT
Nautical Twilight 6:50 AM CDT 7:54 PM CDT
Astronomical Twilight 6:19 AM CDT 8:25 PM CDT
Moon 9:15 AM CDT (10/16) 7:40 PM CDT (10/16)
Length of Visible Light 12h 00m
Length of Day
11h 05m
New Moon, 2% of the Moon is Illuminated
Oct 16
New Moon
Oct 21
First Quarter
Oct 29
Full
Nov 6
Last Quarter
Nov 13
New

Hourly Weather History & Observations

Time (CDT) Temp. Dew Point Humidity Pressure Visibility Wind Dir Wind Speed Gust Speed Precip Events Conditions
12:15 AM 58.3 °F 46.4 °F 65% 29.73 in 10.0 mi South 6.9 mph - N/A   Clear
12:35 AM 58.3 °F 46.8 °F 66% 29.72 in 10.0 mi South 9.2 mph - N/A   Clear
12:55 AM 58.3 °F 46.4 °F 65% 29.72 in 10.0 mi South 8.1 mph - N/A   Clear
1:15 AM 55.8 °F 46.4 °F 71% 29.71 in 10.0 mi South 9.2 mph - N/A   Clear
1:35 AM 53.6 °F 45.5 °F 74% 29.72 in 10.0 mi SW 4.6 mph - N/A   Clear
1:55 AM 53.8 °F 45.7 °F 74% 29.72 in 10.0 mi WSW 5.8 mph - N/A   Clear
2:15 AM 57.9 °F 46.4 °F 65% 29.70 in 10.0 mi SW 8.1 mph - N/A   Clear
2:35 AM 56.1 °F 45.7 °F 68% 29.69 in 10.0 mi WSW 4.6 mph - N/A   Clear
2:55 AM 57.6 °F 44.8 °F 62% 29.68 in 10.0 mi SW 6.9 mph - N/A   Clear
3:15 AM 58.1 °F 43.7 °F 59% 29.67 in 10.0 mi WSW 5.8 mph - N/A   Clear
3:35 AM 60.8 °F 41.9 °F 50% 29.67 in 10.0 mi West 8.1 mph - N/A   Clear
3:55 AM 61.9 °F 41.2 °F 47% 29.67 in 10.0 mi West 13.8 mph - N/A   Clear
4:15 AM 60.6 °F 40.3 °F 47% 29.67 in 10.0 mi West 12.7 mph - N/A   Clear
4:35 AM 59.9 °F 39.2 °F 46% 29.67 in 10.0 mi West 11.5 mph - N/A   Clear
4:55 AM 59.4 °F 38.3 °F 46% 29.67 in 10.0 mi West 12.7 mph - N/A   Clear
5:15 AM 59.0 °F 37.4 °F 45% 29.67 in 10.0 mi West 10.4 mph - N/A   Clear
5:35 AM 56.5 °F 37.4 °F 49% 29.68 in 10.0 mi West 9.2 mph - N/A   Clear
5:55 AM 56.1 °F 36.7 °F 48% 29.68 in 10.0 mi West 10.4 mph - N/A   Clear
6:15 AM 54.9 °F 36.7 °F 50% 29.68 in 10.0 mi NW 10.4 mph - N/A   Clear
6:35 AM 56.7 °F 35.6 °F 45% 29.69 in 10.0 mi NW 12.7 mph - N/A   Clear
7:15 AM 55.9 °F 34.7 °F 45% 29.72 in 10.0 mi NW 12.7 mph 18.4 mph N/A   Clear
7:35 AM 54.1 °F 35.6 °F 50% 29.72 in 10.0 mi NW 10.4 mph - N/A   Clear
7:55 AM 53.4 °F 36.5 °F 53% 29.73 in 10.0 mi NW 10.4 mph - N/A   Clear
8:15 AM 53.6 °F 37.2 °F 54% 29.73 in 10.0 mi NNW 9.2 mph - N/A   Clear
8:35 AM 54.9 °F 37.6 °F 52% 29.72 in 10.0 mi NNW 10.4 mph - N/A   Clear
8:55 AM 55.9 °F 38.1 °F 51% 29.72 in 10.0 mi NW 6.9 mph - N/A   Clear
9:15 AM 56.5 °F 39.0 °F 52% 29.74 in 10.0 mi WNW 5.8 mph - N/A   Clear
9:35 AM 58.8 °F 40.1 °F 50% 29.74 in 10.0 mi West 6.9 mph - N/A   Clear
9:55 AM 61.2 °F 41.0 °F 47% 29.73 in 10.0 mi North 9.2 mph - N/A   Clear
10:15 AM 63.0 °F 42.1 °F 46% 29.73 in 10.0 mi North 11.5 mph 17.3 mph N/A   Clear
10:35 AM 64.2 °F 42.8 °F 46% 29.73 in 10.0 mi North 10.4 mph 16.1 mph N/A   Clear
10:55 AM 65.5 °F 42.6 °F 43% 29.72 in 10.0 mi North 10.4 mph - N/A   Clear
11:15 AM 67.3 °F 42.8 °F 41% 29.71 in 10.0 mi North 12.7 mph 16.1 mph N/A   Clear
11:35 AM 69.1 °F 42.6 °F 38% 29.71 in 10.0 mi NNW 10.4 mph - N/A   Clear
11:55 AM 69.8 °F 41.7 °F 36% 29.69 in 10.0 mi North 8.1 mph - N/A   Clear
12:15 PM 71.8 °F 41.4 °F 33% 29.69 in 10.0 mi NW 8.1 mph - N/A   Clear
12:35 PM 72.3 °F 40.8 °F 32% 29.67 in 10.0 mi WNW 6.9 mph - N/A   Clear
12:55 PM 74.1 °F 41.0 °F 30% 29.67 in 10.0 mi NW 5.8 mph - N/A   Clear
1:15 PM 74.8 °F 39.7 °F 28% 29.64 in 10.0 mi NW 6.9 mph - N/A   Clear
1:35 PM 74.8 °F 38.5 °F 27% 29.63 in 10.0 mi NNW 4.6 mph - N/A   Clear
1:55 PM 75.6 °F 38.5 °F 26% 29.62 in 10.0 mi SSW 4.6 mph - N/A   Clear
2:15 PM 76.6 °F 38.1 °F 25% 29.61 in 10.0 mi WSW 6.9 mph - N/A   Clear
2:35 PM 76.6 °F 37.6 °F 24% 29.60 in 10.0 mi WNW 5.8 mph - N/A   Clear
2:55 PM 77.4 °F 36.7 °F 23% 29.59 in 5.0 mi WNW 5.8 mph - N/A   Haze
3:15 PM 77.9 °F 36.3 °F 22% 29.58 in 10.0 mi West 6.9 mph - N/A   Clear
3:35 PM 78.4 °F 37.0 °F 22% 29.57 in 10.0 mi SW 9.2 mph - N/A   Clear
3:55 PM 78.3 °F 36.7 °F 22% 29.56 in 10.0 mi SW 8.1 mph - N/A   Clear
4:15 PM 77.4 °F 36.9 °F 23% 29.55 in 10.0 mi SW 9.2 mph - N/A   Clear
4:35 PM 77.9 °F 37.6 °F 23% 29.54 in 10.0 mi SSW 9.2 mph 21.9 mph N/A   Clear
4:55 PM 76.1 °F 38.3 °F 26% 29.53 in 10.0 mi SSW 9.2 mph 16.1 mph N/A   Clear
5:15 PM 77.0 °F 38.3 °F 25% 29.53 in 10.0 mi SSW 10.4 mph - N/A   Clear
5:35 PM 75.7 °F 37.2 °F 25% 29.52 in 10.0 mi SW 8.1 mph - N/A   Clear
5:55 PM 75.2 °F 38.1 °F 26% 29.52 in 10.0 mi South 6.9 mph - N/A   Clear
6:15 PM 74.5 °F 38.7 °F 27% 29.51 in 10.0 mi South 8.1 mph - N/A   Clear
6:35 PM 73.0 °F 39.2 °F 29% 29.51 in 10.0 mi SSW 9.2 mph - N/A   Clear
6:55 PM 70.5 °F 39.4 °F 32% 29.51 in 10.0 mi SSW 5.8 mph - N/A   Clear
7:15 PM 68.7 °F 39.4 °F 34% 29.51 in 10.0 mi SSW 8.1 mph - N/A   Clear
7:35 PM 69.8 °F 39.4 °F 33% 29.49 in 10.0 mi South 5.8 mph - N/A   Scattered Clouds
7:55 PM 69.6 °F 39.2 °F 33% 29.49 in 10.0 mi South 9.2 mph - N/A   Mostly Cloudy
8:15 PM 66.7 °F 41.2 °F 39% 29.47 in 10.0 mi South 9.2 mph - N/A   Mostly Cloudy
8:35 PM 66.2 °F 41.2 °F 40% 29.47 in 10.0 mi South 11.5 mph - N/A   Clear
8:55 PM 66.6 °F 41.0 °F 39% 29.46 in 10.0 mi South 11.5 mph - N/A   Clear
9:15 PM 65.5 °F 41.4 °F 41% 29.46 in 10.0 mi South 10.4 mph - N/A   Clear
9:35 PM 65.1 °F 41.9 °F 43% 29.45 in 10.0 mi South 9.2 mph - N/A   Clear
9:55 PM 64.9 °F 41.9 °F 43% 29.46 in 10.0 mi South 10.4 mph - N/A   Clear
10:35 PM 66.2 °F 42.3 °F 42% 29.46 in 10.0 mi SSW 13.8 mph - N/A   Clear
10:55 PM 65.3 °F 42.8 °F 44% 29.45 in 10.0 mi SW 10.4 mph 16.1 mph N/A   Clear
11:15 PM 65.8 °F 42.8 °F 43% 29.43 in 10.0 mi SSW 16.1 mph 19.6 mph N/A   Scattered Clouds
11:35 PM 65.5 °F 43.2 °F 44% 29.43 in 10.0 mi SSW 11.5 mph - N/A   Scattered Clouds
11:55 PM 66.4 °F 42.8 °F 42% 29.45 in 10.0 mi SW 9.2 mph - N/A   Scattered Clouds